Retour au catalogue

STARLINK-32108

ActifCommunicationsVLEO
NORAD 59682·PAYLOAD·🇺🇸 United States

Lancé May 8, 2024 depuis Cape Canaveral Space Force Station

Loading…

Prochains Passages (prochaines 24 heures)

TLE

FraisSource: CelesTrak SupGP

Époque: Sep 14, 2026, 22:03 UTC

1 59682C 24086A   26257.91923611  .00036984  00000+0  13399-2 0  2577
2 59682  43.0032  74.8379 0001492 274.3911 322.5839 15.27552761    19

Suivez STARLINK-32108 en temps réel avec AllMySat

Download on the App Store